LiveATC.Net - Listen to live air traffic control over the Internet! Contact LiveATC.net for advertising information


ICAO: KAUG  IATA: AUG   Airport: Augusta State Airport
City: Augusta   State/Province: Maine
Country: United States   Continent: North America
KAUG METAR Weather: KAUG 020627Z AUTO 16003KT 1/4SM FG VV001 19/19 A2992 RMK AO2 T01890189 $
KAUG Flight Activity (FlightAware)
KAUG Airport Info   (AirNav) (iFlightPlanner)
KAUG CTAF/App/ZBW02
Feed Status: UP   Listeners: 2
Listen right in your browser - requires Flash (in browser, requires Flash)
Click here to listen with your own player (launches your MP3 player)
KAUG CTAF/App/ZBW02 Audio Archives
FacilityFrequency
Augusta Clearance Delivery119.950
Augusta CTAF/UNICOM123.000
Boston Center (Sector 02 Augusta High)134.950
Boston Center (Sector 02 Augusta High)307.000
Portland Approach128.350

Sponsored by LiveATC.net and Maine Instrument Flight

ICAO: KBGR  IATA: BGR   Airport: Bangor International Airport
City: Bangor   State/Province: Maine
Country: United States   Continent: North America
KBGR METAR Weather: KBGR 020553Z 20003KT 8SM FEW003 OVC041 20/19 A2993 RMK AO2 RAE03 SLP131 P0000 60012 T02000194 10211 20194 55003
KBGR Flight Activity (FlightAware)
KBGR Airport Info   (AirNav) (iFlightPlanner)
KBGR App/ZBW
Feed Status: UP   Listeners: 2
Listen right in your browser - requires Flash (in browser, requires Flash)
Click here to listen with your own player (launches your MP3 player)
KBGR App/ZBW Audio Archives
FacilityFrequency
Bangor Approach118.925
Bangor Approach124.500
ZBW Sector 01 Millinocket High 128.050


ICAO: KBOS  IATA: BOS   Airport: General Edward Lawrence Logan International Airport
City: Boston   State/Province: Massachusetts
Country: United States   Continent: North America
KBOS METAR Weather: KBOS 020554Z 22009KT 10SM FEW045 24/22 A2992 RMK AO2 SLP130 T02390217 10261 20228 58005
KBOS Flight Activity (FlightAware)
KBOS Airport Info   (AirNav) (iFlightPlanner)
ZBW Boston Center (BOS46/47/PVD34/CTR07)
Feed Status: UP   Listeners: 4
Listen right in your browser - requires Flash (in browser, requires Flash)
Click here to listen with your own player (launches your MP3 player)
ZBW Boston Center (BOS46/47/PVD34/CTR07) Audio Archives
FacilityFrequency
ZBW BOS46 High (spare)118.425
ZBW BOS46 High (spare)277.400
ZBW BOS47 Low133.425
ZBW BOS47 Low307.900
ZBW CTR07 Low127.650
ZBW CTR07 Low257.925
ZBW PVD34 Low124.850
ZBW PVD34 Low269.200

ZBW Boston Center (CAM39)
Feed Status: UP   Listeners: 4
Listen right in your browser - requires Flash (in browser, requires Flash)
Click here to listen with your own player (launches your MP3 player)
ZBW Boston Center (CAM39) Audio Archives
FacilityFrequency
AWACS/Backup133.625
Boston Center (ALB 22 sector)121.350
Boston Center (ATHENS 38 sector)135.325
Boston Center (CAM 39 sector)128.325

ZBW Boston Center (CANAN21/BOS46)
Feed Status: UP   Listeners: 2
Listen right in your browser - requires Flash (in browser, requires Flash)
Click here to listen with your own player (launches your MP3 player)
ZBW Boston Center (CANAN21/BOS46) Audio Archives
FacilityFrequency
ZBW Boston Center (BOS46 High)126.225
ZBW Boston Center (BOS46 High)370.900
ZBW Boston Center (CANAN21 Low)132.650

ZBW Boston Center (GDM36/CON37)
Feed Status: UP   Listeners: 2
Listen right in your browser - requires Flash (in browser, requires Flash)
Click here to listen with your own player (launches your MP3 player)
ZBW Boston Center (GDM36/CON37) Audio Archives
FacilityFrequency
Boston Center (CON 37 sector)134.700
Boston Center (GDM 36 sector)123.750
Boston Center CON37 Sector (UHF)381.400
Boston Center GDM36 Sector (UHF)338.200
Emergency/Guard121.500
Emergency/Guard243.000

Sponsored by LiveATC.net
ZBW Boston Center (MPV52/PLB53)
Feed Status: UP   Listeners: 2
Listen right in your browser - requires Flash (in browser, requires Flash)
Click here to listen with your own player (launches your MP3 player)
ZBW Boston Center (MPV52/PLB53) Audio Archives
FacilityFrequency
ZBW Special Use (AWACS Control)354.100
ZBW52 Montpelier (Low/High)120.350
ZBW52 Montpelier (Low/High)282.200
ZBW52 Montpelier (Low/High)342.250
ZBW52 Montpelier Low/High135.700
ZBW53 Plattsburgh (High)118.825
ZBW53 Plattsburgh (High)251.075

ZBW Boston Center (RKA10)
Feed Status: UP   Listeners: 2
Listen right in your browser - requires Flash (in browser, requires Flash)
Click here to listen with your own player (launches your MP3 player)
ZBW Boston Center (RKA10) Audio Archives
FacilityFrequency
Boston Center (Rockdale 10 Sector High FL280-600)124.125

ZBW Boston Center (UCA09/ART08)
Feed Status: UP   Listeners: 2
Listen right in your browser - requires Flash (in browser, requires Flash)
Click here to listen with your own player (launches your MP3 player)
ZBW Boston Center (UCA09/ART08) Audio Archives
FacilityFrequency
Boston Center (Utica 09 Sector)123.875
Boston Center (Watertown 08 Sector)135.250

ZBW/ZNY Atlantic Sectors + Military
Feed Status: UP   Listeners: 4
Listen right in your browser - requires Flash (in browser, requires Flash)
Click here to listen with your own player (launches your MP3 player)
ZBW/ZNY Atlantic Sectors + Military Audio Archives
FacilityFrequency
ARINC129.900
Boston Center (BOSOX 46 High)118.425
Boston Center (BOSOX 46 High)126.225
Boston Center ACK 17 Sector133.450
Boston Center CAPE 18 Sector128.750
Boston Center CAPE 18 Sector132.900
Military236.750
Military254.600
Military293.000
Military314.100
Military343.100
Military373.550
Military378.200
Military391.000
Military396.200
New York Center Oceanic Clearances125.925


ICAO: KHUL  IATA: HUL   Airport: Houlton International Airport
City: Houlton   State/Province: Maine
Country: United States   Continent: North America
KHUL METAR Weather: KHUL 020553Z AUTO 00000KT 4SM BR OVC006 18/17 A2994 RMK AO2 SLP136 60000 T01830172 10189 20183 56005
KHUL Flight Activity (FlightAware)
KHUL Airport Info   (AirNav) (iFlightPlanner)
KHUL/KPQI/ZBW01/15
Feed Status: UP   Listeners: 2
Listen right in your browser - requires Flash (in browser, requires Flash)
Click here to listen with your own player (launches your MP3 player)
KHUL/KPQI/ZBW01/15 Audio Archives
FacilityFrequency
Boston Center (Sector 01 Millinocket High Sector)128.050
Boston Center (Sector 01 Millinocket High Sector)319.100
Boston Center (Surry 15 Low Sector)120.250
Boston Center (Surry 15 Low Sector)346.400
Emergency/Guard121.500
Houlton CTAF/UNICOM122.800
Presque Isle CTAF/UNICOM122.800


ICAO: KHYA  IATA: HYA   Airport: Barnstable Municipal Airport-Boardman/Polando Field
City: Hyannis   State/Province: Massachusetts
Country: United States   Continent: North America
KHYA METAR Weather: KHYA 020556Z AUTO 22007KT 8SM SCT005 22/21 A2993 RMK AO2 SLP136 T02220211 10233 20222 58005
KHYA Flight Activity (FlightAware)
KHYA Airport Info   (AirNav) (iFlightPlanner)
KHYA Twr/Cape App/ZBW/ZNY
Feed Status: UP   Listeners: 2
Listen right in your browser - requires Flash (in browser, requires Flash)
Click here to listen with your own player (launches your MP3 player)
KHYA Twr/Cape App/ZBW/ZNY Audio Archives
FacilityFrequency
Boston Center (ACK 17 sector)133.450
Boston Center (CAPE 18 sector)128.750
Cape Approach118.200
Hyannis Tower119.500
Hyannis Tower257.800
New York Center (High Oceanic)125.925
Otis Tower121.000

Feed courtesy of:
Scan New England

ICAO: KJFK  IATA: JFK   Airport: John F Kennedy International Airport
City: New York   State/Province: New York
Country: United States   Continent: North America
KJFK METAR Weather: KJFK 020551Z 00000KT 10SM FEW075 24/23 A2993 RMK AO2 SLP135 T02440228 10261 20244 58007 $
KJFK Flight Activity (FlightAware)
KJFK Airport Info   (AirNav) (iFlightPlanner)
ZBW Boston Center (CLIPR32/HTO31)
Feed Status: UP   Listeners: 2
Listen right in your browser - requires Flash (in browser, requires Flash)
Click here to listen with your own player (launches your MP3 player)
ZBW Boston Center (CLIPR32/HTO31) Audio Archives
FacilityFrequency
Boston Center (CLIPR32 Sector)135.800
Boston Center (HTO31 Sector)124.525
Emergency/Guard121.500

ZBW Boston Center (DXR19/SOUTHIE49)
Feed Status: UP   Listeners: 2
Listen right in your browser - requires Flash (in browser, requires Flash)
Click here to listen with your own player (launches your MP3 player)
ZBW Boston Center (DXR19/SOUTHIE49) Audio Archives
FacilityFrequency
Boston Center (DANBURY 19 Sector)134.000
Boston Center (SOUTHIE49 Sector)132.300

ZBW/ZNY/ZDC (JFK Area) #1
Feed Status: UP   Listeners: 4
Listen right in your browser - requires Flash (in browser, requires Flash)
Click here to listen with your own player (launches your MP3 player)
ZBW/ZNY/ZDC (JFK Area) #1 Audio Archives
FacilityFrequency
Boston Center (IGN20 Sector 20 Kingston High)125.575
New York Center (Sector 42 East Texas High)127.175
New York Center (Sector 56 Kennedy High backup)128.675
New York Center (Sector 56 Kennedy High backup)134.375
New York Center (Sector 56 Kennedy High)125.325
Washington Center (Sector 10 BAY High)132.275
Washington Center (Sector 12 High)126.875
Washington Center (Sector 18 DUPONT High)132.525
Washington Center (Sector 19 Woodstown High)125.450


ICAO: KPQI  IATA: PQI   Airport: Northern Maine Regional Airport at Presque Isle
City: Presque Isle   State/Province: Maine
Country: United States   Continent: North America
KPQI METAR Weather: KPQI 020615Z AUTO 14005KT 10SM BKN005 OVC013 18/16 A2992 RMK AO1
KPQI Flight Activity (FlightAware)
KPQI Airport Info   (AirNav) (iFlightPlanner)
KHUL/KPQI/ZBW01/15
Feed Status: UP   Listeners: 2
Listen right in your browser - requires Flash (in browser, requires Flash)
Click here to listen with your own player (launches your MP3 player)
KHUL/KPQI/ZBW01/15 Audio Archives
FacilityFrequency
Boston Center (Sector 01 Millinocket High Sector)128.050
Boston Center (Sector 01 Millinocket High Sector)319.100
Boston Center (Surry 15 Low Sector)120.250
Boston Center (Surry 15 Low Sector)346.400
Emergency/Guard121.500
Houlton CTAF/UNICOM122.800
Presque Isle CTAF/UNICOM122.800


ICAO: KSWF  IATA: SWF   Airport: Stewart International Airport
City: Newburgh   State/Province: New York
Country: United States   Continent: North America
KSWF METAR Weather: KSWF 020445Z 00000KT 10SM SKC 24/22 A2996
KSWF Flight Activity (FlightAware)
KSWF Airport Info   (AirNav) (iFlightPlanner)
ZBW Boston Center (SWF05)
Feed Status: UP   Listeners: 2
Listen right in your browser - requires Flash (in browser, requires Flash)
Click here to listen with your own player (launches your MP3 player)
ZBW Boston Center (SWF05) Audio Archives
FacilityFrequency
Boston Center (Stewart 05 Sector)134.300

Sponsored by LiveATC.net and Poughkeepsie Pilots Association

NOTICE

Unauthorized use prohibited. See LiveATC.net Terms of Service


Find LiveATC Audio Streams


Airport/ARTCC Code

Frequency
(e.g., 124.400, 128.75)
Site-wide search

Browse LiveATC Feeds
LiveATC Coverage Map
Top 50 LiveATC Feeds
Bad Weather Areas

LiveATC FAQ
Offer a LiveATC Feed
Contact LiveATC.net
Press Inquiries

LiveATC on iPhone
LiveATC on Android

LiveATC Mobile
(Mobile browser)

ATC Audio Archives
Interesting Recordings

LiveATC Forums


Home Page
About LiveATC.net
Make a Donation
LiveATC Bookstore

Terms of Use
Privacy Policy

ATC/Radar Sites
U.S. ARTCC Freqs
Canadian Air Freqs

AIRMETs/SIGMETs

FAA Airport Status
Nat'l Airspace Status
Arrival Demand Charts


Server Software By:
Icecast.org
Liquidsoap

Please make a donation to help us keep growing!